This demonstration page uses our WeatherBlox Daily Observations layout. Learn more.

Left ArrowRight Arrow

41.12389, -100.76542

Hourly Observations for July 11, 2018

Temp ( °F °C ) Dew Point ( °F °C ) Humidity (%) Winds ( mph kmh ) Pressure ( in mb ) Visibility ( mi km ) Precip ( " mm )
12:53 am 00:53 Clear 80 26.7 65 18.3 60 60 S 13 20 29.95 1014 10 16 0.00 0.00
1:53 am 01:53 Clear 77 25 65 18.3 66 66 S 9 15 29.94 1014 10 16 0.00 0.00
2:53 am 02:53 Clear 75 23.9 66 18.9 74 74 SSW 10 17 29.94 1014 10 16 0.00 0.00
3:53 am 03:53 Clear 73 22.8 66 18.9 79 79 S 8 13 29.93 1014 10 16 0.00 0.00
4:53 am 04:53 Clear 72 22.2 65 18.3 79 79 S 8 13 29.93 1013 10 16 0.00 0.00
5:53 am 05:53 Clear 71 21.7 65 18.3 81 81 S 7 11 29.94 1014 10 16 0.00 0.00
6:53 am 06:53 Sunny 72 22.2 65 18.3 79 79 S 8 13 29.93 1014 10 16 0.00 0.00
7:53 am 07:53 Sunny 75 23.9 67 19.4 76 76 SE 5 7 29.94 1014 10 16 0.00 0.00
8:53 am 08:53 Sunny 80 26.7 68 20 67 67 S 8 13 29.94 1014 10 16 0.00 0.00
9:53 am 09:53 Sunny 84 28.9 68 20 59 59 SSW 13 20 29.94 1014 10 16 0.00 0.00
10:53 am 10:53 Sunny 88 31.1 69 20.6 54 54 SSW 12 19 29.93 1014 10 16 0.00 0.00
11:53 am 11:53 Sunny 90 32.2 68 20 48 48 SSW 20 31 29.91 1013 10 16 0.00 0.00
12:53 pm 12:53 Sunny 93 33.9 69 20.6 46 46 S 18 30 29.91 1013 10 16 0.00 0.00
1:53 pm 13:53 Sunny 95 35 69 20.6 43 43 SSW 15 24 29.90 1012 10 16 0.00 0.00
2:53 pm 14:53 Sunny 96 35.6 65 18.3 36 36 SSW 14 22 29.88 1012 10 16 0.00 0.00
3:53 pm 15:53 Sunny 97 36.1 64 17.8 34 34 S 13 20 29.88 1012 10 16 0.00 0.00
4:53 pm 16:53 Sunny 97 36.1 65 18.3 35 35 S 12 19 29.87 1011 10 16 0.00 0.00
5:53 pm 17:53 Sunny 96 35.6 62 16.7 32 32 S 12 19 29.85 1011 10 16 0.00 0.00
6:53 pm 18:53 Sunny 94 34.4 65 18.3 38 38 SSE 8 13 29.84 1011 10 16 0.00 0.00
7:53 pm 19:53 Sunny 90 32.2 65 18.3 44 44 SSE 10 17 29.85 1011 10 16 0.00 0.00
8:53 pm 20:53 Sunny 86 30 65 18.3 49 49 SSE 7 11 29.87 1011 10 16 0.00 0.00
9:53 pm 21:53 Clear 78 25.6 66 18.9 67 67 ESE 7 11 29.90 1012 10 16 0.00 0.00
10:53 pm 22:53 Clear 78 25.6 68 20 71 71 ESE 10 17 29.92 1013 10 16 0.00 0.00
11:53 pm 23:53 Clear 79 26.1 67 19.4 67 67 ESE 10 17 29.93 1013 10 16 0.00 0.00

Powered by AerisWeather